Tracking 29892 objects as of 21-Nov-2024
HD Live streaming from Space Station
objects crossing your sky now

STARLINK-3931

Track STARLINK-3931 now!
10-day predictions
STARLINK-3931 is classified as:


NORAD ID: 52548
Int'l Code: 2022-051R
Perigee: 545.9 km
Apogee: 547.9 km
Inclination: 53.2 °
Period: 95.4 minutes
Semi major axis: 6917 km
RCS: Unknown
Launch date: May 13, 2022
Source: United States (US)
Launch site: AIR FORCE WESTERN TEST RANGE (AFWTR)
Your satellite tracking list
Your tracking list is empty




NASA's NSSDC Master Catalog

Two Line Element Set (TLE):
1 52548U 22051R   24325.77708690  .00000329  00000-0  38725-4 0  9997
2 52548  53.2167  96.5949 0001449  91.9367 268.1792 15.08847052139902
Source of the keplerian elements: AFSPC